Year,Month,Day,Hour,Minute,Value (Times are PST for windgust in km/hr)
2015,12,07,00,00,29.00
2015,12,07,00,01,19.30
2015,12,07,00,02,22.50
2015,12,07,00,03,20.90
2015,12,07,00,04,24.20
2015,12,07,00,05,25.70
2015,12,07,00,06,20.90
2015,12,07,00,07,14.50
2015,12,07,00,08,19.30
2015,12,07,00,09,16.10
2015,12,07,00,10,20.90
2015,12,07,00,11,17.70
2015,12,07,00,12,16.10
2015,12,07,00,13,12.90
2015,12,07,00,14,19.30
2015,12,07,00,15,19.30
2015,12,07,00,16,20.90
2015,12,07,00,17,12.90
2015,12,07,00,18,9.60
2015,12,07,00,19,11.30
2015,12,07,00,20,11.30
2015,12,07,00,21,11.30
2015,12,07,00,22,8.10
2015,12,07,00,23,8.10
2015,12,07,00,24,3.20
2015,12,07,00,25,1.60
2015,12,07,00,26,3.20
2015,12,07,00,27,3.20
2015,12,07,00,30,4.80
2015,12,07,00,31,3.20
2015,12,07,00,33,1.60
2015,12,07,00,34,4.80
2015,12,07,00,35,3.20
2015,12,07,00,36,1.60
2015,12,07,00,37,4.80
2015,12,07,00,38,8.10
2015,12,07,00,39,3.20
2015,12,07,00,40,8.10
2015,12,07,00,41,6.40
2015,12,07,00,42,4.80
2015,12,07,00,43,3.20
2015,12,07,00,44,3.20
2015,12,07,00,45,1.60
2015,12,07,00,47,6.40
2015,12,07,00,48,4.80
2015,12,07,00,49,3.20
2015,12,07,00,50,3.20
2015,12,07,00,51,3.20
2015,12,07,00,52,3.20
2015,12,07,00,53,3.20
2015,12,07,00,54,8.10
2015,12,07,00,55,6.40
2015,12,07,00,56,4.80
2015,12,07,00,57,4.80
2015,12,07,00,58,4.80
2015,12,07,00,59,4.80
2015,12,07,01,00,6.40
2015,12,07,01,01,4.80
2015,12,07,01,02,3.20
2015,12,07,01,03,4.80
2015,12,07,01,04,3.20
2015,12,07,01,05,3.20
2015,12,07,01,06,6.40
2015,12,07,01,07,6.40
2015,12,07,01,08,3.20
2015,12,07,01,09,6.40
2015,12,07,01,10,6.40
2015,12,07,01,11,3.20
2015,12,07,01,12,1.60
2015,12,07,01,13,3.20
2015,12,07,01,14,3.20
2015,12,07,01,15,1.60
2015,12,07,01,16,3.20
2015,12,07,01,17,6.40
2015,12,07,01,18,4.80
2015,12,07,01,19,4.80
2015,12,07,01,20,4.80
2015,12,07,01,21,4.80
2015,12,07,01,22,6.40
2015,12,07,01,23,6.40
2015,12,07,01,24,4.80
2015,12,07,01,25,6.40
2015,12,07,01,26,6.40
2015,12,07,01,27,6.40
2015,12,07,01,28,3.20
2015,12,07,01,29,6.40
2015,12,07,01,30,4.80
2015,12,07,01,31,6.40
2015,12,07,01,32,4.80
2015,12,07,01,33,4.80
2015,12,07,01,34,4.80
2015,12,07,01,35,4.80
2015,12,07,01,36,6.40
2015,12,07,01,37,6.40
2015,12,07,01,38,4.80
2015,12,07,01,39,6.40
2015,12,07,01,40,4.80
2015,12,07,01,41,4.80
2015,12,07,01,42,4.80
2015,12,07,01,43,4.80
2015,12,07,01,44,3.20
2015,12,07,01,45,3.20
2015,12,07,01,46,4.80
2015,12,07,01,47,1.60
2015,12,07,01,48,1.60
2015,12,07,01,49,3.20
2015,12,07,01,50,3.20
2015,12,07,01,51,4.80
2015,12,07,01,52,1.60
2015,12,07,01,53,1.60
2015,12,07,01,54,4.80
2015,12,07,01,55,6.40
2015,12,07,01,56,4.80
2015,12,07,01,57,6.40
2015,12,07,01,58,6.40
2015,12,07,01,59,6.40
2015,12,07,02,00,8.10
2015,12,07,02,01,6.40
2015,12,07,02,02,8.10
2015,12,07,02,03,6.40
2015,12,07,02,04,4.80
2015,12,07,02,05,3.20
2015,12,07,02,06,3.20
2015,12,07,02,07,3.20
2015,12,07,02,09,1.60
2015,12,07,02,10,3.20
2015,12,07,02,11,1.60
2015,12,07,02,16,4.80
2015,12,07,02,17,4.80
2015,12,07,02,18,4.80
2015,12,07,02,19,3.20
2015,12,07,02,20,3.20
2015,12,07,02,21,3.20
2015,12,07,02,22,3.20
2015,12,07,02,23,1.60
2015,12,07,02,26,3.20
2015,12,07,02,27,4.80
2015,12,07,02,28,4.80
2015,12,07,02,29,4.80
2015,12,07,02,30,3.20
2015,12,07,02,31,3.20
2015,12,07,02,32,3.20
2015,12,07,02,33,3.20
2015,12,07,02,34,3.20
2015,12,07,02,35,3.20
2015,12,07,02,36,3.20
2015,12,07,02,37,3.20
2015,12,07,02,38,3.20
2015,12,07,02,39,3.20
2015,12,07,02,40,4.80
2015,12,07,02,41,3.20
2015,12,07,02,42,4.80
2015,12,07,02,43,4.80
2015,12,07,02,44,4.80
2015,12,07,02,45,4.80
2015,12,07,02,46,4.80
2015,12,07,02,47,4.80
2015,12,07,02,48,3.20
2015,12,07,02,49,4.80
2015,12,07,02,50,6.40
2015,12,07,02,51,4.80
2015,12,07,02,52,6.40
2015,12,07,02,53,6.40
2015,12,07,02,54,6.40
2015,12,07,02,55,4.80
2015,12,07,02,56,1.60
2015,12,07,02,58,4.80
2015,12,07,02,59,3.20
2015,12,07,03,00,4.80
2015,12,07,03,01,3.20
2015,12,07,03,02,3.20
2015,12,07,03,03,4.80
2015,12,07,03,04,3.20
2015,12,07,03,05,1.60
2015,12,07,03,06,1.60
2015,12,07,03,07,1.60
2015,12,07,03,08,1.60
2015,12,07,03,09,1.60
2015,12,07,03,10,1.60
2015,12,07,03,13,1.60
2015,12,07,03,14,3.20
2015,12,07,03,15,4.80
2015,12,07,03,16,3.20
2015,12,07,03,17,1.60
2015,12,07,03,18,4.80
2015,12,07,03,19,1.60
2015,12,07,03,20,3.20
2015,12,07,03,21,6.40
2015,12,07,03,22,6.40
2015,12,07,03,23,3.20
2015,12,07,03,24,4.80
2015,12,07,03,25,4.80
2015,12,07,03,26,1.60
2015,12,07,03,27,1.60
2015,12,07,03,28,1.60
2015,12,07,03,30,3.20
2015,12,07,03,31,3.20
2015,12,07,03,32,3.20
2015,12,07,03,33,3.20
2015,12,07,03,34,3.20
2015,12,07,03,35,3.20
2015,12,07,03,36,3.20
2015,12,07,03,37,3.20
2015,12,07,03,38,3.20
2015,12,07,03,39,1.60
2015,12,07,03,40,1.60
2015,12,07,03,41,1.60
2015,12,07,03,42,1.60
2015,12,07,03,43,3.20
2015,12,07,03,44,1.60
2015,12,07,03,45,3.20
2015,12,07,03,46,3.20
2015,12,07,03,47,1.60
2015,12,07,03,58,1.60
2015,12,07,03,59,3.20
2015,12,07,04,00,3.20
2015,12,07,04,01,3.20
2015,12,07,04,02,1.60
2015,12,07,04,05,1.60
2015,12,07,04,06,3.20
2015,12,07,04,07,6.40
2015,12,07,04,08,6.40
2015,12,07,04,09,4.80
2015,12,07,04,10,6.40
2015,12,07,04,11,3.20
2015,12,07,04,12,3.20
2015,12,07,04,13,1.60
2015,12,07,04,14,1.60
2015,12,07,04,15,1.60
2015,12,07,04,16,1.60
2015,12,07,04,20,3.20
2015,12,07,04,21,3.20
2015,12,07,04,22,3.20
2015,12,07,04,23,3.20
2015,12,07,04,24,1.60
2015,12,07,04,25,3.20
2015,12,07,04,26,3.20
2015,12,07,04,27,3.20
2015,12,07,04,28,3.20
2015,12,07,04,29,1.60
2015,12,07,04,30,1.60
2015,12,07,04,31,1.60
2015,12,07,04,32,1.60
2015,12,07,04,35,1.60
2015,12,07,04,36,1.60
2015,12,07,04,37,1.60
2015,12,07,04,38,3.20
2015,12,07,04,39,1.60
2015,12,07,04,40,1.60
2015,12,07,04,41,1.60
2015,12,07,04,43,1.60
2015,12,07,04,45,1.60
2015,12,07,04,46,1.60
2015,12,07,04,47,1.60
2015,12,07,04,49,1.60
2015,12,07,04,50,3.20
2015,12,07,04,51,3.20
2015,12,07,04,52,3.20
2015,12,07,04,53,3.20
2015,12,07,04,54,3.20
2015,12,07,04,55,3.20
2015,12,07,04,56,3.20
2015,12,07,04,57,1.60
2015,12,07,04,59,1.60
2015,12,07,05,00,3.20
2015,12,07,05,01,3.20
2015,12,07,05,02,3.20
2015,12,07,05,03,4.80
2015,12,07,05,04,4.80
2015,12,07,05,05,4.80
2015,12,07,05,06,3.20
2015,12,07,05,08,1.60
2015,12,07,05,09,1.60
2015,12,07,05,10,1.60
2015,12,07,05,11,3.20
2015,12,07,05,12,1.60
2015,12,07,05,13,1.60
2015,12,07,05,14,1.60
2015,12,07,05,15,1.60
2015,12,07,05,16,1.60
2015,12,07,05,18,3.20
2015,12,07,05,19,4.80
2015,12,07,05,20,4.80
2015,12,07,05,21,4.80
2015,12,07,05,22,3.20
2015,12,07,05,23,3.20
2015,12,07,05,24,3.20
2015,12,07,05,25,3.20
2015,12,07,05,26,4.80
2015,12,07,05,27,4.80
2015,12,07,05,28,4.80
2015,12,07,05,29,6.40
2015,12,07,05,30,6.40
2015,12,07,05,31,4.80
2015,12,07,05,32,4.80
2015,12,07,05,33,6.40
2015,12,07,05,34,6.40
2015,12,07,05,35,6.40
2015,12,07,05,36,4.80
2015,12,07,05,37,4.80
2015,12,07,05,38,4.80
2015,12,07,05,39,4.80
2015,12,07,05,40,4.80
2015,12,07,05,41,4.80
2015,12,07,05,42,6.40
2015,12,07,05,43,6.40
2015,12,07,05,44,6.40
2015,12,07,05,45,6.40
2015,12,07,05,46,3.20
2015,12,07,05,47,3.20
2015,12,07,05,48,3.20
2015,12,07,05,49,3.20
2015,12,07,05,50,3.20
2015,12,07,05,51,9.60
2015,12,07,05,52,9.60
2015,12,07,05,53,11.30
2015,12,07,05,54,11.30
2015,12,07,05,55,11.30
2015,12,07,05,56,9.60
2015,12,07,05,57,9.60
2015,12,07,05,58,8.10
2015,12,07,05,59,6.40
2015,12,07,06,00,6.40
2015,12,07,06,01,8.10
2015,12,07,06,02,8.10
2015,12,07,06,03,8.10
2015,12,07,06,04,8.10
2015,12,07,06,05,6.40
2015,12,07,06,06,4.80
2015,12,07,06,07,1.60
2015,12,07,06,08,3.20
2015,12,07,06,09,3.20
2015,12,07,06,10,3.20
2015,12,07,06,11,3.20
2015,12,07,06,12,1.60
2015,12,07,06,13,3.20
2015,12,07,06,14,1.60
2015,12,07,06,15,3.20
2015,12,07,06,16,4.80
2015,12,07,06,17,4.80
2015,12,07,06,18,6.40
2015,12,07,06,19,6.40
2015,12,07,06,20,8.10
2015,12,07,06,21,6.40
2015,12,07,06,22,4.80
2015,12,07,06,23,3.20
2015,12,07,06,24,4.80
2015,12,07,06,25,8.10
2015,12,07,06,26,8.10
2015,12,07,06,27,4.80
2015,12,07,06,28,8.10
2015,12,07,06,29,9.60
2015,12,07,06,30,8.10
2015,12,07,06,31,6.40
2015,12,07,06,32,6.40
2015,12,07,06,33,4.80
2015,12,07,06,34,6.40
2015,12,07,06,35,6.40
2015,12,07,06,36,4.80
2015,12,07,06,37,6.40
2015,12,07,06,38,3.20
2015,12,07,06,39,6.40
2015,12,07,06,40,4.80
2015,12,07,06,41,3.20
2015,12,07,06,42,1.60
2015,12,07,06,43,3.20
2015,12,07,06,44,3.20
2015,12,07,06,45,3.20
2015,12,07,06,46,4.80
2015,12,07,06,47,3.20
2015,12,07,06,48,3.20
2015,12,07,06,49,3.20
2015,12,07,06,50,3.20
2015,12,07,06,51,3.20
2015,12,07,06,52,4.80
2015,12,07,06,53,3.20
2015,12,07,06,54,4.80
2015,12,07,06,55,4.80
2015,12,07,06,56,3.20
2015,12,07,06,57,3.20
2015,12,07,06,58,3.20
2015,12,07,06,59,1.60
2015,12,07,07,00,1.60
2015,12,07,07,01,1.60
2015,12,07,07,03,3.20
2015,12,07,07,04,3.20
2015,12,07,07,05,1.60
2015,12,07,07,06,3.20
2015,12,07,07,07,1.60
2015,12,07,07,10,1.60
2015,12,07,07,11,1.60
2015,12,07,07,12,4.80
2015,12,07,07,13,4.80
2015,12,07,07,14,1.60
2015,12,07,07,15,1.60
2015,12,07,07,16,4.80
2015,12,07,07,17,3.20
2015,12,07,07,18,3.20
2015,12,07,07,19,1.60
2015,12,07,07,22,1.60
2015,12,07,07,23,1.60
2015,12,07,07,24,3.20
2015,12,07,07,25,3.20
2015,12,07,07,27,4.80
2015,12,07,07,28,6.40
2015,12,07,07,29,6.40
2015,12,07,07,30,6.40
2015,12,07,07,31,6.40
2015,12,07,07,32,6.40
2015,12,07,07,33,6.40
2015,12,07,07,34,6.40
2015,12,07,07,35,4.80
2015,12,07,07,36,3.20
2015,12,07,07,37,4.80
2015,12,07,07,38,4.80
2015,12,07,07,39,4.80
2015,12,07,07,40,6.40
2015,12,07,07,41,3.20
2015,12,07,07,42,4.80
2015,12,07,07,43,4.80
2015,12,07,07,44,3.20
2015,12,07,07,45,4.80
2015,12,07,07,46,4.80
2015,12,07,07,47,4.80
2015,12,07,07,48,3.20
2015,12,07,07,49,1.60
2015,12,07,07,50,1.60
2015,12,07,07,51,1.60
2015,12,07,07,52,3.20
2015,12,07,07,53,3.20
2015,12,07,07,54,3.20
2015,12,07,07,55,3.20
2015,12,07,07,56,1.60
2015,12,07,07,57,1.60
2015,12,07,07,59,3.20
2015,12,07,08,00,3.20
2015,12,07,08,01,4.80
2015,12,07,08,02,4.80
2015,12,07,08,03,4.80
2015,12,07,08,04,4.80
2015,12,07,08,05,3.20
2015,12,07,08,06,3.20
2015,12,07,08,07,3.20
2015,12,07,08,08,4.80
2015,12,07,08,09,4.80
2015,12,07,08,10,4.80
2015,12,07,08,11,3.20
2015,12,07,08,12,4.80
2015,12,07,08,13,4.80
2015,12,07,08,14,9.60
2015,12,07,08,15,9.60
2015,12,07,08,16,9.60
2015,12,07,08,17,6.40
2015,12,07,08,18,6.40
2015,12,07,08,19,4.80
2015,12,07,08,20,6.40
2015,12,07,08,21,4.80
2015,12,07,08,22,4.80
2015,12,07,08,23,4.80
2015,12,07,08,24,4.80
2015,12,07,08,25,4.80
2015,12,07,08,26,6.40
2015,12,07,08,27,4.80
2015,12,07,08,28,6.40
2015,12,07,08,29,6.40
2015,12,07,08,30,6.40
2015,12,07,08,31,8.10
2015,12,07,08,32,6.40
2015,12,07,08,33,6.40
2015,12,07,08,34,8.10
2015,12,07,08,35,6.40
2015,12,07,08,36,4.80
2015,12,07,08,37,4.80
2015,12,07,08,38,4.80
2015,12,07,08,39,1.60
2015,12,07,08,40,1.60
2015,12,07,08,41,3.20
2015,12,07,08,42,3.20
2015,12,07,08,43,1.60
2015,12,07,08,44,3.20
2015,12,07,08,45,3.20
2015,12,07,08,46,3.20
2015,12,07,08,47,4.80
2015,12,07,08,48,4.80
2015,12,07,08,49,4.80
2015,12,07,08,50,4.80
2015,12,07,08,51,4.80
2015,12,07,08,52,3.20
2015,12,07,08,53,3.20
2015,12,07,08,54,3.20
2015,12,07,08,55,3.20
2015,12,07,08,56,3.20
2015,12,07,08,57,3.20
2015,12,07,08,58,3.20
2015,12,07,08,59,3.20
2015,12,07,09,00,3.20
2015,12,07,09,01,3.20
2015,12,07,09,02,3.20
2015,12,07,09,03,4.80
2015,12,07,09,04,6.40
2015,12,07,09,05,4.80
2015,12,07,09,06,4.80
2015,12,07,09,07,3.20
2015,12,07,09,08,6.40
2015,12,07,09,09,4.80
2015,12,07,09,10,3.20
2015,12,07,09,11,4.80
2015,12,07,09,12,4.80
2015,12,07,09,13,4.80
2015,12,07,09,14,6.40
2015,12,07,09,15,4.80
2015,12,07,09,16,3.20
2015,12,07,09,17,6.40
2015,12,07,09,18,1.60
2015,12,07,09,19,3.20
2015,12,07,09,20,4.80
2015,12,07,09,21,4.80
2015,12,07,09,22,6.40
2015,12,07,09,23,6.40
2015,12,07,09,24,8.10
2015,12,07,09,25,6.40
2015,12,07,09,26,8.10
2015,12,07,09,27,9.60
2015,12,07,09,28,4.80
2015,12,07,09,29,3.20
2015,12,07,09,30,3.20
2015,12,07,09,31,6.40
2015,12,07,09,32,6.40
2015,12,07,09,33,6.40
2015,12,07,09,34,8.10
2015,12,07,09,35,8.10
2015,12,07,09,36,6.40
2015,12,07,09,37,6.40
2015,12,07,09,38,6.40
2015,12,07,09,39,6.40
2015,12,07,09,40,4.80
2015,12,07,09,41,6.40
2015,12,07,09,42,4.80
2015,12,07,09,43,4.80
2015,12,07,09,44,4.80
2015,12,07,09,45,4.80
2015,12,07,09,46,3.20
2015,12,07,09,47,1.60
2015,12,07,09,48,3.20
2015,12,07,09,49,4.80
2015,12,07,09,50,3.20
2015,12,07,09,51,1.60
2015,12,07,09,52,1.60
2015,12,07,09,53,1.60
2015,12,07,09,56,1.60
2015,12,07,09,57,3.20
2015,12,07,09,58,3.20
2015,12,07,09,59,1.60
2015,12,07,10,00,3.20
2015,12,07,10,01,3.20
2015,12,07,10,02,3.20
2015,12,07,10,03,3.20
2015,12,07,10,04,4.80
2015,12,07,10,05,3.20
2015,12,07,10,06,3.20
2015,12,07,10,07,1.60
2015,12,07,10,08,3.20
2015,12,07,10,09,3.20
2015,12,07,10,10,4.80
2015,12,07,10,11,4.80
2015,12,07,10,12,6.40
2015,12,07,10,13,8.10
2015,12,07,10,14,3.20
2015,12,07,10,15,4.80
2015,12,07,10,16,4.80
2015,12,07,10,17,3.20
2015,12,07,10,18,4.80
2015,12,07,10,19,3.20
2015,12,07,10,20,3.20
2015,12,07,10,21,1.60
2015,12,07,10,22,1.60
2015,12,07,10,23,6.40
2015,12,07,10,24,3.20
2015,12,07,10,25,3.20
2015,12,07,10,26,3.20
2015,12,07,10,27,6.40
2015,12,07,10,28,1.60
2015,12,07,10,29,1.60
2015,12,07,10,31,1.60
2015,12,07,10,32,1.60
2015,12,07,10,33,11.30
2015,12,07,10,34,12.90
2015,12,07,10,35,14.50
2015,12,07,10,36,8.10
2015,12,07,10,37,11.30
2015,12,07,10,38,12.90
2015,12,07,10,39,11.30
2015,12,07,10,40,12.90
2015,12,07,10,41,11.30
2015,12,07,10,42,16.10
2015,12,07,10,43,14.50
2015,12,07,10,44,12.90
2015,12,07,10,45,9.60
2015,12,07,10,46,11.30
2015,12,07,10,47,16.10
2015,12,07,10,48,16.10
2015,12,07,10,49,11.30
2015,12,07,10,50,8.10
2015,12,07,10,51,12.90
2015,12,07,10,52,9.60
2015,12,07,10,53,11.30
2015,12,07,10,54,11.30
2015,12,07,10,55,11.30
2015,12,07,10,56,9.60
2015,12,07,10,57,8.10
2015,12,07,10,58,11.30
2015,12,07,10,59,9.60
2015,12,07,11,00,6.40
2015,12,07,11,01,8.10
2015,12,07,11,02,9.60
2015,12,07,11,03,8.10
2015,12,07,11,04,14.50
2015,12,07,11,05,12.90
2015,12,07,11,06,19.30
2015,12,07,11,07,19.30
2015,12,07,11,08,19.30
2015,12,07,11,09,16.10
2015,12,07,11,10,17.70
2015,12,07,11,11,16.10
2015,12,07,11,12,14.50
2015,12,07,11,13,14.50
2015,12,07,11,14,11.30
2015,12,07,11,15,19.30
2015,12,07,11,16,19.30
2015,12,07,11,17,14.50
2015,12,07,11,18,14.50
2015,12,07,11,19,17.70
2015,12,07,11,20,19.30
2015,12,07,11,21,16.10
2015,12,07,11,22,20.90
2015,12,07,11,23,17.70
2015,12,07,11,24,24.20
2015,12,07,11,25,24.20
2015,12,07,11,26,27.40
2015,12,07,11,27,16.10
2015,12,07,11,28,16.10
2015,12,07,11,29,25.70
2015,12,07,11,30,25.70
2015,12,07,11,31,22.50
2015,12,07,11,32,19.30
2015,12,07,11,33,20.90
2015,12,07,11,34,24.20
2015,12,07,11,35,17.70
2015,12,07,11,36,16.10
2015,12,07,11,37,20.90
2015,12,07,11,38,22.50
2015,12,07,11,39,17.70
2015,12,07,11,40,19.30
2015,12,07,11,41,19.30
2015,12,07,11,42,16.10
2015,12,07,11,43,19.30
2015,12,07,11,44,20.90
2015,12,07,11,45,29.00
2015,12,07,11,46,27.40
2015,12,07,11,47,25.70
2015,12,07,11,48,22.50
2015,12,07,11,49,22.50
2015,12,07,11,50,30.60
2015,12,07,11,51,22.50
2015,12,07,11,52,19.30
2015,12,07,11,53,20.90
2015,12,07,11,54,25.70
2015,12,07,11,55,20.90
2015,12,07,11,56,25.70
2015,12,07,11,57,30.60
2015,12,07,11,58,29.00
2015,12,07,11,59,20.90
2015,12,07,12,00,29.00
2015,12,07,12,01,25.70
2015,12,07,12,02,17.70
2015,12,07,12,03,24.20
2015,12,07,12,04,19.30
2015,12,07,12,05,20.90
2015,12,07,12,06,22.50
2015,12,07,12,07,22.50
2015,12,07,12,08,17.70
2015,12,07,12,09,19.30
2015,12,07,12,10,17.70
2015,12,07,12,11,25.70
2015,12,07,12,12,17.70
2015,12,07,12,13,17.70
2015,12,07,12,14,17.70
2015,12,07,12,15,19.30
2015,12,07,12,16,27.40
2015,12,07,12,17,24.20
2015,12,07,12,18,22.50
2015,12,07,12,19,22.50
2015,12,07,12,20,25.70
2015,12,07,12,21,22.50
2015,12,07,12,22,19.30
2015,12,07,12,23,17.70
2015,12,07,12,24,20.90
2015,12,07,12,25,17.70
2015,12,07,12,26,16.10
2015,12,07,12,27,14.50
2015,12,07,12,28,17.70
2015,12,07,12,29,19.30
2015,12,07,12,30,19.30
2015,12,07,12,31,16.10
2015,12,07,12,32,16.10
2015,12,07,12,33,20.90
2015,12,07,12,34,14.50
2015,12,07,12,35,16.10
2015,12,07,12,36,17.70
2015,12,07,12,37,25.70
2015,12,07,12,38,16.10
2015,12,07,12,39,16.10
2015,12,07,12,40,16.10
2015,12,07,12,41,16.10
2015,12,07,12,42,16.10
2015,12,07,12,43,14.50
2015,12,07,12,44,19.30
2015,12,07,12,45,16.10
2015,12,07,12,46,20.90
2015,12,07,12,47,20.90
2015,12,07,12,48,22.50
2015,12,07,12,49,24.20
2015,12,07,12,50,17.70
2015,12,07,12,51,14.50
2015,12,07,12,52,17.70
2015,12,07,12,53,19.30
2015,12,07,12,54,19.30
2015,12,07,12,55,17.70
2015,12,07,12,56,16.10
2015,12,07,12,57,16.10
2015,12,07,12,58,17.70
2015,12,07,12,59,17.70
2015,12,07,13,00,11.30
2015,12,07,13,01,12.90
2015,12,07,13,02,16.10
2015,12,07,13,03,14.50
2015,12,07,13,04,17.70
2015,12,07,13,05,12.90
2015,12,07,13,06,14.50
2015,12,07,13,07,16.10
2015,12,07,13,08,12.90
2015,12,07,13,09,12.90
2015,12,07,13,10,17.70
2015,12,07,13,11,16.10
2015,12,07,13,12,19.30
2015,12,07,13,13,20.90
2015,12,07,13,14,22.50
2015,12,07,13,15,17.70
2015,12,07,13,16,19.30
2015,12,07,13,17,19.30
2015,12,07,13,18,19.30
2015,12,07,13,19,16.10
2015,12,07,13,20,20.90
2015,12,07,13,21,12.90
2015,12,07,13,22,11.30
2015,12,07,13,23,20.90
2015,12,07,13,24,14.50
2015,12,07,13,25,17.70
2015,12,07,13,26,17.70
2015,12,07,13,27,14.50
2015,12,07,13,28,16.10
2015,12,07,13,29,12.90
2015,12,07,13,30,11.30
2015,12,07,13,31,8.10
2015,12,07,13,32,6.40
2015,12,07,13,33,6.40
2015,12,07,13,34,4.80
2015,12,07,13,35,3.20
2015,12,07,13,36,1.60
2015,12,07,13,37,3.20
2015,12,07,13,38,6.40
2015,12,07,13,39,4.80
2015,12,07,13,40,3.20
2015,12,07,13,41,4.80
2015,12,07,13,42,6.40
2015,12,07,13,43,6.40
2015,12,07,13,44,6.40
2015,12,07,13,45,8.10
2015,12,07,13,46,8.10
2015,12,07,13,47,8.10
2015,12,07,13,48,6.40
2015,12,07,13,49,6.40
2015,12,07,13,50,4.80
2015,12,07,13,51,6.40
2015,12,07,13,52,4.80
2015,12,07,13,53,4.80
2015,12,07,13,54,3.20
2015,12,07,13,55,3.20
2015,12,07,13,56,4.80
2015,12,07,13,57,4.80
2015,12,07,13,58,3.20
2015,12,07,13,59,6.40
2015,12,07,14,00,6.40
2015,12,07,14,01,6.40
2015,12,07,14,02,6.40
2015,12,07,14,03,6.40
2015,12,07,14,04,4.80
2015,12,07,14,05,4.80
2015,12,07,14,06,3.20
2015,12,07,14,07,3.20
2015,12,07,14,08,3.20
2015,12,07,14,09,3.20
2015,12,07,14,10,1.60
2015,12,07,14,11,1.60
2015,12,07,14,12,1.60
2015,12,07,14,13,1.60
2015,12,07,14,15,3.20
2015,12,07,14,16,3.20
2015,12,07,14,17,1.60
2015,12,07,14,18,1.60
2015,12,07,14,19,3.20
2015,12,07,14,20,4.80
2015,12,07,14,21,3.20
2015,12,07,14,22,4.80
2015,12,07,14,23,3.20
2015,12,07,14,24,3.20
2015,12,07,14,25,3.20
2015,12,07,14,26,1.60
2015,12,07,14,27,1.60
2015,12,07,14,28,3.20
2015,12,07,14,29,4.80
2015,12,07,14,30,3.20
2015,12,07,14,31,3.20
2015,12,07,14,32,3.20
2015,12,07,14,33,1.60
2015,12,07,14,34,3.20
2015,12,07,14,35,3.20
2015,12,07,14,36,4.80
2015,12,07,14,37,3.20
2015,12,07,14,38,4.80
2015,12,07,14,39,3.20
2015,12,07,14,40,1.60
2015,12,07,14,41,4.80
2015,12,07,14,42,3.20
2015,12,07,14,43,1.60
2015,12,07,14,44,1.60
2015,12,07,14,45,1.60
2015,12,07,14,46,4.80
2015,12,07,14,47,3.20
2015,12,07,14,48,1.60
2015,12,07,14,49,3.20
2015,12,07,14,50,3.20
2015,12,07,14,51,3.20
2015,12,07,14,52,4.80
2015,12,07,14,53,4.80
2015,12,07,14,54,3.20
2015,12,07,14,55,3.20
2015,12,07,14,56,3.20
2015,12,07,14,57,3.20
2015,12,07,14,58,3.20
2015,12,07,14,59,3.20
2015,12,07,15,00,1.60
2015,12,07,15,01,1.60
2015,12,07,15,03,1.60
2015,12,07,15,08,1.60
2015,12,07,15,11,3.20
2015,12,07,15,12,3.20
2015,12,07,15,13,1.60
2015,12,07,15,14,3.20
2015,12,07,15,15,3.20
2015,12,07,15,16,4.80
2015,12,07,15,17,3.20
2015,12,07,15,18,4.80
2015,12,07,15,19,3.20
2015,12,07,15,20,3.20
2015,12,07,15,21,1.60
2015,12,07,15,22,3.20
2015,12,07,15,23,4.80
2015,12,07,15,24,4.80
2015,12,07,15,25,6.40
2015,12,07,15,26,4.80
2015,12,07,15,27,4.80
2015,12,07,15,28,8.10
2015,12,07,15,29,6.40
2015,12,07,15,30,6.40
2015,12,07,15,31,6.40
2015,12,07,15,32,8.10
2015,12,07,15,33,6.40
2015,12,07,15,34,4.80
2015,12,07,15,35,4.80
2015,12,07,15,36,4.80
2015,12,07,15,37,4.80
2015,12,07,15,38,3.20
2015,12,07,15,39,3.20
2015,12,07,15,40,1.60
2015,12,07,15,41,1.60
2015,12,07,15,42,1.60
2015,12,07,15,46,1.60
2015,12,07,15,47,1.60
2015,12,07,15,48,1.60
2015,12,07,15,49,1.60
2015,12,07,15,50,1.60
2015,12,07,15,51,1.60
2015,12,07,16,41,3.20
2015,12,07,16,42,4.80
2015,12,07,16,43,4.80
2015,12,07,16,44,3.20
2015,12,07,16,45,3.20
2015,12,07,16,46,3.20
2015,12,07,16,47,3.20
2015,12,07,16,48,1.60
2015,12,07,16,49,1.60
2015,12,07,16,50,1.60
2015,12,07,16,52,1.60
2015,12,07,16,53,1.60
2015,12,07,17,00,1.60
2015,12,07,17,01,1.60
2015,12,07,17,02,3.20
2015,12,07,17,03,3.20
2015,12,07,17,04,3.20
2015,12,07,17,05,3.20
2015,12,07,17,06,3.20
2015,12,07,17,07,3.20
2015,12,07,17,08,3.20
2015,12,07,17,09,3.20
2015,12,07,17,10,1.60
2015,12,07,17,22,1.60
2015,12,07,17,24,1.60
2015,12,07,17,25,1.60
2015,12,07,17,26,3.20
2015,12,07,17,27,3.20
2015,12,07,17,28,3.20
2015,12,07,17,29,3.20
2015,12,07,17,30,3.20
2015,12,07,17,31,3.20
2015,12,07,17,32,3.20
2015,12,07,17,33,3.20
2015,12,07,17,34,3.20
2015,12,07,17,35,1.60
2015,12,07,17,36,1.60
2015,12,07,17,37,3.20
2015,12,07,17,38,3.20
2015,12,07,17,39,1.60
2015,12,07,17,42,3.20
2015,12,07,17,43,3.20
2015,12,07,17,44,1.60
2015,12,07,17,45,3.20
2015,12,07,17,46,3.20
2015,12,07,17,47,3.20
2015,12,07,17,48,3.20
2015,12,07,17,49,4.80
2015,12,07,17,50,4.80
2015,12,07,17,51,4.80
2015,12,07,17,52,3.20
2015,12,07,17,53,3.20
2015,12,07,17,54,3.20
2015,12,07,17,55,3.20
2015,12,07,17,56,1.60
2015,12,07,17,57,1.60
2015,12,07,18,00,1.60
2015,12,07,18,01,3.20
2015,12,07,18,02,3.20
2015,12,07,18,03,3.20
2015,12,07,18,04,3.20
2015,12,07,18,05,3.20
2015,12,07,18,06,3.20
2015,12,07,18,07,3.20
2015,12,07,18,08,4.80
2015,12,07,18,09,4.80
2015,12,07,18,10,3.20
2015,12,07,18,11,1.60
2015,12,07,18,12,1.60
2015,12,07,18,13,1.60
2015,12,07,18,14,1.60
2015,12,07,18,23,1.60
2015,12,07,18,26,1.60
2015,12,07,18,27,1.60
2015,12,07,18,28,1.60
2015,12,07,18,35,1.60
2015,12,07,18,36,1.60
2015,12,07,18,37,3.20
2015,12,07,18,38,1.60
2015,12,07,18,39,1.60
2015,12,07,18,40,1.60
2015,12,07,19,00,1.60
2015,12,07,19,04,1.60
2015,12,07,19,05,1.60
2015,12,07,19,15,1.60
2015,12,07,19,16,1.60
2015,12,07,19,17,1.60
2015,12,07,19,18,3.20
2015,12,07,19,19,3.20
2015,12,07,19,20,3.20
2015,12,07,19,21,3.20
2015,12,07,19,22,3.20
2015,12,07,19,23,3.20
2015,12,07,19,24,3.20
2015,12,07,19,25,3.20
2015,12,07,19,26,1.60
2015,12,07,19,27,1.60
2015,12,07,19,28,1.60
2015,12,07,19,29,1.60
2015,12,07,19,30,1.60
2015,12,07,19,31,1.60
2015,12,07,19,41,1.60
2015,12,07,19,43,1.60
2015,12,07,19,44,1.60
2015,12,07,19,45,1.60
2015,12,07,19,46,3.20
2015,12,07,19,47,4.80
2015,12,07,19,48,3.20
2015,12,07,19,49,3.20
2015,12,07,19,50,1.60
2015,12,07,19,51,1.60
2015,12,07,19,52,1.60
2015,12,07,19,53,1.60
2015,12,07,19,54,3.20
2015,12,07,19,55,4.80
2015,12,07,19,56,4.80
2015,12,07,19,57,4.80
2015,12,07,19,58,6.40
2015,12,07,19,59,6.40
2015,12,07,20,00,4.80
2015,12,07,20,01,6.40
2015,12,07,20,02,4.80
2015,12,07,20,03,4.80
2015,12,07,20,04,6.40
2015,12,07,20,05,8.10
2015,12,07,20,06,6.40
2015,12,07,20,07,6.40
2015,12,07,20,08,8.10
2015,12,07,20,09,6.40
2015,12,07,20,10,11.30
2015,12,07,20,11,9.60
2015,12,07,20,12,9.60
2015,12,07,20,13,6.40
2015,12,07,20,14,6.40
2015,12,07,20,15,11.30
2015,12,07,20,16,11.30
2015,12,07,20,17,8.10
2015,12,07,20,18,6.40
2015,12,07,20,19,8.10
2015,12,07,20,20,6.40
2015,12,07,20,21,4.80
2015,12,07,20,22,3.20
2015,12,07,20,23,4.80
2015,12,07,20,24,4.80
2015,12,07,20,25,6.40
2015,12,07,20,26,3.20
2015,12,07,20,27,4.80
2015,12,07,20,28,9.60
2015,12,07,20,29,4.80
2015,12,07,20,30,6.40
2015,12,07,20,31,11.30
2015,12,07,20,32,6.40
2015,12,07,20,33,6.40
2015,12,07,20,34,4.80
2015,12,07,20,35,4.80
2015,12,07,20,36,6.40
2015,12,07,20,37,6.40
2015,12,07,20,38,9.60
2015,12,07,20,39,6.40
2015,12,07,20,40,12.90
2015,12,07,20,41,6.40
2015,12,07,20,42,11.30
2015,12,07,20,43,11.30
2015,12,07,20,44,11.30
2015,12,07,20,45,14.50
2015,12,07,20,46,11.30
2015,12,07,20,47,14.50
2015,12,07,20,48,11.30
2015,12,07,20,49,11.30
2015,12,07,20,50,12.90
2015,12,07,20,51,12.90
2015,12,07,20,52,12.90
2015,12,07,20,53,12.90
2015,12,07,20,54,11.30
2015,12,07,20,55,12.90
2015,12,07,20,56,11.30
2015,12,07,20,57,14.50
2015,12,07,20,58,16.10
2015,12,07,20,59,14.50
2015,12,07,21,00,17.70
2015,12,07,21,01,20.90
2015,12,07,21,02,17.70
2015,12,07,21,03,12.90
2015,12,07,21,04,14.50